TimeCDT,TemperatureF,Dew PointF,Humidity,Sea Level PressureIn,VisibilityMPH,Wind Direction,Wind SpeedMPH,Gust SpeedMPH,PrecipitationIn,Events,Conditions,WindDirDegrees,DateUTC
12:18 AM,82.4,73.4,74,30.02,10.0,SW,6.9,-,N/A,,Overcast,230,2013-07-21 05:18:00
12:58 AM,81.7,73.8,77,30.02,10.0,SW,5.8,-,N/A,,Mostly Cloudy,220,2013-07-21 05:58:00
1:58 AM,81.1,72.3,74,30.01,10.0,SW,4.6,-,N/A,,Scattered Clouds,220,2013-07-21 06:58:00
2:58 AM,80.6,71.6,74,30.01,10.0,SW,5.8,-,N/A,,Clear,230,2013-07-21 07:58:00
3:16 AM,80.6,73.4,79,30.00,10.0,SW,4.6,-,N/A,,Mostly Cloudy,220,2013-07-21 08:16:00
3:19 AM,80.6,73.4,79,30.00,10.0,SW,5.8,-,N/A,,Mostly Cloudy,230,2013-07-21 08:19:00
3:35 AM,80.6,73.4,79,30.00,10.0,SW,4.6,-,N/A,,Mostly Cloudy,220,2013-07-21 08:35:00
3:55 AM,80.6,71.6,74,30.00,10.0,SW,6.9,-,N/A,,Mostly Cloudy,220,2013-07-21 08:55:00
4:58 AM,81.0,72.1,74,30.02,10.0,SW,4.6,-,N/A,,Mostly Cloudy,230,2013-07-21 09:58:00
5:58 AM,81.0,71.8,74,30.03,10.0,SW,3.5,-,N/A,,Overcast,220,2013-07-21 10:58:00
6:40 AM,80.6,73.4,79,30.03,10.0,WSW,3.5,-,N/A,Rain,Light Rain,240,2013-07-21 11:40:00
6:50 AM,82.4,73.4,74,30.03,10.0,SW,3.5,-,N/A,,Partly Cloudy,230,2013-07-21 11:50:00
6:58 AM,81.7,73.4,76,30.04,10.0,SW,2.3,-,0.00,,Partly Cloudy,220,2013-07-21 11:58:00
7:19 AM,80.6,73.4,79,30.04,10.0,SW,5.8,-,N/A,Rain,Light Rain,220,2013-07-21 12:19:00
7:29 AM,82.4,73.4,74,30.04,10.0,SW,6.9,-,N/A,,Partly Cloudy,230,2013-07-21 12:29:00
7:58 AM,82.9,72.3,70,30.05,10.0,WSW,8.1,-,0.00,,Mostly Cloudy,240,2013-07-21 12:58:00
8:45 AM,84.2,73.4,70,30.05,10.0,SW,15.0,-,N/A,Rain,Light Rain,220,2013-07-21 13:45:00
8:50 AM,80.6,73.4,79,30.06,9.0,SSW,15.0,20.7,N/A,Rain,Light Rain,210,2013-07-21 13:50:00
8:58 AM,78.4,71.8,80,30.07,10.0,South,8.1,19.6,0.02,Rain,Light Rain,190,2013-07-21 13:58:00
9:06 AM,77.0,69.8,78,30.06,10.0,South,17.3,-,N/A,Rain-Thunderstorm,Light Thunderstorms and Rain,190,2013-07-21 14:06:00
9:21 AM,77.0,69.8,78,30.06,10.0,SW,9.2,23.0,N/A,Rain,Light Rain,220,2013-07-21 14:21:00
9:48 AM,78.8,71.6,78,30.06,10.0,WSW,5.8,-,N/A,,Partly Cloudy,240,2013-07-21 14:48:00
9:58 AM,80.4,72.0,75,30.07,10.0,WSW,8.1,-,0.02,,Scattered Clouds,240,2013-07-21 14:58:00
10:21 AM,82.4,73.4,74,30.07,10.0,WSW,11.5,-,N/A,,Light Drizzle,240,2013-07-21 15:21:00
10:58 AM,82.0,70.0,67,30.09,10.0,WSW,9.2,-,0.00,Rain,Light Rain,240,2013-07-21 15:58:00
10:59 AM,82.4,69.8,66,30.08,10.0,WSW,10.4,-,N/A,,Partly Cloudy,240,2013-07-21 15:59:00
11:09 AM,84.2,71.6,66,30.07,10.0,WSW,13.8,21.9,N/A,,Light Drizzle,250,2013-07-21 16:09:00
11:46 AM,84.2,71.6,66,30.07,10.0,SW,12.7,18.4,N/A,,Partly Cloudy,230,2013-07-21 16:46:00
11:58 AM,84.4,72.1,67,30.08,10.0,SW,15.0,-,0.00,,Partly Cloudy,220,2013-07-21 16:58:00
12:07 PM,84.2,73.4,70,30.07,10.0,WSW,12.7,-,N/A,Rain,Light Rain,240,2013-07-21 17:07:00
12:36 PM,80.6,71.6,74,30.06,10.0,SW,11.5,-,N/A,,Scattered Clouds,220,2013-07-21 17:36:00
12:55 PM,82.4,69.8,66,30.06,10.0,WSW,10.4,-,N/A,Rain,Light Rain,240,2013-07-21 17:55:00
12:58 PM,81.7,70.3,68,30.07,10.0,WSW,8.1,-,0.00,Rain,Light Rain,240,2013-07-21 17:58:00
1:19 PM,80.6,71.6,74,30.05,10.0,WSW,6.9,-,N/A,,Scattered Clouds,240,2013-07-21 18:19:00
1:58 PM,84.4,71.2,65,30.06,10.0,SW,12.7,-,0.00,,Mostly Cloudy,230,2013-07-21 18:58:00
2:58 PM,85.3,72.3,65,30.04,10.0,WSW,13.8,20.7,N/A,,Partly Cloudy,240,2013-07-21 19:58:00
3:21 PM,82.4,73.4,74,30.05,8.0,WSW,23.0,34.5,N/A,Rain,Light Rain,250,2013-07-21 20:21:00
3:26 PM,78.8,73.4,83,30.05,2.5,WSW,18.4,34.5,N/A,Rain,Heavy Rain,240,2013-07-21 20:26:00
3:31 PM,77.0,71.6,83,30.05,1.0,WSW,16.1,32.2,N/A,Rain,Heavy Rain,240,2013-07-21 20:31:00
3:36 PM,75.2,71.6,89,30.04,1.2,West,9.2,27.6,N/A,Rain,Heavy Rain,260,2013-07-21 20:36:00
3:41 PM,75.2,73.4,94,30.04,2.5,West,6.9,23.0,N/A,Rain,Rain,260,2013-07-21 20:41:00
3:46 PM,77.0,71.6,83,30.04,4.0,West,11.5,-,N/A,Rain,Light Rain,270,2013-07-21 20:46:00
3:56 PM,77.0,71.6,83,30.04,10.0,West,9.2,-,N/A,Rain,Light Rain,270,2013-07-21 20:56:00
3:58 PM,77.0,71.6,83,30.05,10.0,West,12.7,-,0.19,Rain,Light Rain,260,2013-07-21 20:58:00
4:03 PM,77.0,71.6,83,30.03,10.0,West,13.8,20.7,N/A,,Light Drizzle,270,2013-07-21 21:03:00
4:06 PM,77.0,71.6,83,30.03,10.0,West,15.0,20.7,N/A,,Scattered Clouds,270,2013-07-21 21:06:00
4:58 PM,79.2,71.1,76,30.04,10.0,West,11.5,-,0.00,,Partly Cloudy,270,2013-07-21 21:58:00
5:58 PM,80.1,70.0,71,30.04,10.0,West,8.1,-,N/A,,Clear,280,2013-07-21 22:58:00
6:58 PM,79.5,69.8,72,30.04,10.0,WNW,6.9,-,N/A,,Partly Cloudy,300,2013-07-21 23:58:00
7:58 PM,78.1,70.0,76,30.05,10.0,NW,4.6,-,N/A,,Clear,310,2013-07-22 00:58:00
8:58 PM,77.4,71.4,82,30.05,10.0,NNE,1.2,-,N/A,,Overcast,30,2013-07-22 01:58:00
9:06 PM,77.0,69.8,78,30.04,10.0,NE,1.2,-,N/A,,Light Drizzle,50,2013-07-22 02:06:00
9:16 PM,77.0,69.8,78,30.04,10.0,Calm,Calm,-,N/A,,Overcast,0,2013-07-22 02:16:00
9:27 PM,78.8,69.8,74,30.05,10.0,Calm,Calm,-,N/A,,Light Drizzle,0,2013-07-22 02:27:00
9:42 PM,78.8,69.8,74,30.05,10.0,West,2.3,-,N/A,,Overcast,270,2013-07-22 02:42:00
9:58 PM,78.8,70.9,77,30.06,10.0,West,2.3,-,0.00,,Overcast,270,2013-07-22 02:58:00
10:58 PM,80.2,71.8,75,30.07,10.0,SW,6.9,-,N/A,,Mostly Cloudy,230,2013-07-22 03:58:00
11:58 PM,80.2,71.4,74,30.07,10.0,SW,5.8,-,N/A,,Mostly Cloudy,230,2013-07-22 04:58:00